Regional Weather Roundup
Issued by NWS Jackson, KY

Home | Current Version | Previous Version | Graphics & Text | Print | Product List | Glossary On
Versions: 1 2 3 4 5 6 7 8 9 10 11 12 13 14 15 16 17 18 19 20 21 22 23 24 25 26 27 28
000
ASUS43 KJKL 240510
RWRJKL

EAST KENTUCKY HOURLY WEATHER ROUNDUP
NATIONAL WEATHER SERVICE JACKSON KY
100 AM EDT TUE MAY 24 2016

NOTE: "FAIR" INDICATES FEW OR NO CLOUDS BELOW 12,000 FEET WITH
NO SIGNIFICANT WEATHER AND/OR OBSTRUCTIONS TO VISIBILITY.

* THESE REPORTS ARE NOT UNDER NWS QUALITY CONTROL AND MAY NOT
  REPORT WEATHER SUCH AS PRECIPITATION AND FOG.

KYZ079-080-083-085-087-088-110-112-115-119-120-240600
...EASTERN KENTUCKY...

CITY           SKY/WX    TMP DP  RH WIND       PRES   REMARKS
JACKSON        CLEAR     61  48  62 SE3       30.07S
LONDON         CLEAR     54  50  86 CALM      30.06S
SOMERSET*      CLEAR     54  50  87 CALM      30.07S
MONTICELLO*    CLEAR     51  49  92 W9        30.07S
WILLIAMSBURG*  CLEAR     52  52 100 CALM      30.07R
MIDDLESBORO*   CLEAR     53  51  92 CALM      30.09R
HARLAN APT*      N/A     52  50  93 CALM      30.09S
HAZARD APT*    CLEAR     54  54 100 CALM      30.07S
BLACK MTN*       N/A     54  48  82 E2          N/A
PIKE CO APT*     N/A     59  52  76 SE3       30.08S
BIG SANDY APT* CLEAR     56  54  95 CALM      30.07S
MOREHEAD APT*  CLEAR     57  52  82 S5        30.07F
ASHLAND*         N/A     54  52  94 CALM      30.03S VSB 1/2
$$

KYZ035-036-041-042-044-050-067-078-099-240600
...CENTRAL KENTUCKY...

CITY           SKY/WX    TMP DP  RH WIND       PRES   REMARKS
MT STERLING*   CLEAR     52  52 100 CALM      30.08R FOG
FLEMING/MASON* CLEAR     57  52  81 CALM      30.06S
DANVILLE*      CLEAR     54  50  87 CALM      30.07R
RICHMOND*      CLEAR     55  50  82 E3        30.05S
LEXINGTON      PTCLDY    58  51  78 E5        30.05S
FRANKFORT      CLEAR     55  50  83 CALM      30.04S
LOUISVILLE     CLEAR     65  50  58 SE6       30.03S
LEBANON*         N/A     57  52  82 CALM      30.05F
GLASGOW*       CLEAR     55  48  80 CALM      30.03S
BOWLING GREEN  CLEAR     58  51  78 CALM      30.02S
$$

KYZ091>093-OHZ055-061-077-WVZ005-015-034-035-042-240600
...SOUTHERN OHIO/WEST VIRGINIA...

CITY           SKY/WX    TMP DP  RH WIND       PRES   REMARKS
COVINGTON      CLEAR     53  51  93 S5        30.04F
COLUMBUS       CLEAR     57  51  80 CALM      30.03S
DAYTON         CLEAR     61  47  59 SW7       30.05S
WILMINGTON     CLEAR     56  52  86 CALM      30.05R
HUNTINGTON       N/A     56  52  86 CALM      30.04F
CHARLESTON       N/A     56  53  90 CALM      30.05S
PINEVILLE*     CLOUDY    51  48  90 MISG      30.14S
BECKLEY          N/A     51  48  89 CALM      30.10S
BLUEFIELD        N/A     50  47  89 W6        30.11F
LOGAN CO APT*    N/A     55  52  88 CALM      30.07S
$$

VAZ002-007-008-TNZ017-027-036-066-071-240600
...SOUTHWEST VIRGINIA/EAST TENNESSEE...

CITY           SKY/WX    TMP DP  RH WIND       PRES   REMARKS
WISE*            N/A     57  43  58 CALM      30.12S
JONESVILLE*      N/A     52  50  93 CALM      30.10R
ABINGDON*        N/A     52  50  92 CALM      30.10S
BRISTOL        CLEAR     52  50  93 VRB3      30.09S
SEVIERVILLE*   CLEAR     54  50  87 CALM      30.05S
KNOXVILLE      CLEAR     61  50  67 N5        30.04S
OAK RIDGE      CLEAR     57  51  80 CALM      30.07S
CROSSVILLE     CLEAR     60  45  57 CALM      30.08S
NASHVILLE      CLEAR     63  52  67 CALM      30.02S
$$

...KEY TO REMARKS...
VSB - VISIBILITY IN MILES
WCI - WIND CHILL INDEX
HX  - HEAT INDEX

$$




USA.gov is the U.S. government's official web portal to all federal, state and local government web resources and services.